Weather History for KSET - January, 2014

Change the Weather History Date:

Monday, January 6, 2014

  Actual Average (KSTL) Record (KSTL)
Temperature  
Mean Temperature -4 °F 32 °F  
Max Temperature 0 °F 40 °F 73 °F (2008)
Min Temperature -11 °F 24 °F -11 °F (1884)
Degree Days  
Heating Degree Days 69 33  
Month to date heating degree days 198  
Since 1 July heating degree days 1963  
Cooling Degree Days 0 0  
Month to date cooling degree days 0  
Year to date cooling degree days 0  
Moisture  
Dew Point -17 °F    
Average Humidity 56    
Maximum Humidity 74    
Minimum Humidity 47    
Precipitation  
Precipitation 0.00 in 0.09 in 1.35 in (1890)
Month to date precipitation 0.53  
Year to date precipitation 0.53  
Snow  
Snow 0.00 in 0.20 in 5.10 in (1962)
Month to date snowfall 1.1  
Since 1 July snowfall 6.2  
Snow Depth -    
Sea Level Pressure  
Sea Level Pressure 30.50 in    
Wind  
Wind Speed 16 mph (WNW)    
Max Wind Speed 24 mph    
Max Gust Speed 30 mph    
Visibility 9 miles    
Events      
T = Trace of Precipitation, MM = Missing Value Source: NWS Daily Summary

Daily Weather History Graph

Daily Weather History Graph

Search for Another Location

Airport or City:

Trip Planner

Search our weather history database for the weather conditions in past years. The results will help you decide how hot, cold, wet, or windy it might be!

Date:

Astronomy

Jan. 06, 2014 Rise Set
Actual Time 7:20 AM CST 4:54 PM CST
Civil Twilight 6:51 AM CST 5:24 PM CST
Nautical Twilight 6:17 AM CST 5:57 PM CST
Astronomical Twilight 5:45 AM CST 6:29 PM CST
Moon 10:39 AM CST 11:24 PM CST
Length of Visible Light 10h 33m
Length of Day
9h 34m
Waxing Crescent, 35% of the Moon is Illuminated
Jan 6
Waxing Crescent
Jan 7
First Quarter
Jan 15
Full
Jan 23
Last Quarter
Jan 30
New

Hourly Weather History & Observations

Time (CST) Temp. Windchill Dew Point Humidity Pressure Visibility Wind Dir Wind Speed Gust Speed Precip Events Conditions
12:54 AM -0.0 °F -21.3 °F -16.1 °F 47% 30.39 in 8.0 mi NW 18.4 mph 26.5 mph N/A   Clear
1:54 AM -0.9 °F -19.9 °F -16.1 °F 49% 30.41 in 10.0 mi NW 13.8 mph - N/A   Clear
2:54 AM -2.9 °F -23.8 °F -16.1 °F 54% 30.43 in 10.0 mi NW 16.1 mph 23.0 mph N/A   Clear
3:54 AM -4.0 °F -25.2 °F -17.0 °F 54% 30.45 in 10.0 mi WNW 16.1 mph - N/A   Clear
4:54 AM -6.0 °F -29.0 °F -18.9 °F 54% 30.45 in 10.0 mi WNW 18.4 mph - N/A   Clear
5:54 AM -6.0 °F -27.0 °F -18.0 °F 56% 30.47 in 10.0 mi WNW 15.0 mph - N/A   Clear
6:54 AM -8.0 °F -30.3 °F -18.9 °F 59% 30.50 in 10.0 mi WNW 16.1 mph - N/A   Clear
7:54 AM -8.0 °F -28.0 °F -18.9 °F 59% 30.52 in 10.0 mi West 12.7 mph - N/A   Partly Cloudy
8:54 AM -8.0 °F -32.8 °F -18.9 °F 59% 30.54 in 8.0 mi WNW 20.7 mph - N/A   Clear
9:54 AM -7.1 °F -33.2 °F -18.9 °F 56% 30.54 in 7.0 mi WNW 24.2 mph 29.9 mph N/A   Clear
10:54 AM -6.0 °F -30.7 °F -18.0 °F 56% 30.53 in 10.0 mi West 21.9 mph - N/A   Mostly Cloudy
11:50 AM -4.0 °F -25.8 °F -16.6 °F 55% 30.47 in 1.2 mi WNW 17.3 mph - N/A   Haze
11:54 AM -4.0 °F -24.5 °F -17.0 °F 54% 30.51 in 2.5 mi West 15.0 mph - N/A   Haze
12:01 PM -4.0 °F -27.6 °F -17.0 °F 54% 30.47 in 9.0 mi WNW 20.7 mph 27.6 mph N/A   Mostly Cloudy
12:54 PM -2.9 °F -25.0 °F -16.1 °F 54% 30.49 in 10.0 mi West 18.4 mph 26.5 mph N/A   Partly Cloudy
1:54 PM -2.0 °F -25.5 °F -16.1 °F 51% 30.49 in 8.0 mi West 21.9 mph 26.5 mph N/A   Scattered Clouds
2:54 PM -0.9 °F -23.0 °F -15.0 °F 52% 30.51 in 10.0 mi WNW 19.6 mph 26.5 mph N/A   Partly Cloudy
3:54 PM -2.0 °F -23.9 °F -16.1 °F 51% 30.51 in 10.0 mi West 18.4 mph - N/A   Clear
4:54 PM -2.0 °F -22.6 °F -15.0 °F 54% 30.52 in 10.0 mi West 16.1 mph - N/A   Clear
5:54 PM -2.9 °F -20.8 °F -15.0 °F 56% 30.52 in 10.0 mi West 11.5 mph - N/A   Clear
6:54 PM -2.9 °F -20.8 °F -15.0 °F 56% 30.53 in 10.0 mi West 11.5 mph - N/A   Clear
7:54 PM -4.0 °F -20.2 °F -15.0 °F 59% 30.55 in 10.0 mi West 9.2 mph - N/A   Clear
8:54 PM -5.1 °F -22.5 °F -15.0 °F 62% 30.54 in 10.0 mi West 10.4 mph - N/A   Clear
9:54 PM -5.1 °F -21.5 °F -14.1 °F 65% 30.54 in 10.0 mi WSW 9.2 mph - N/A   Clear
10:54 PM -6.0 °F - -15.0 °F 65% 30.53 in 10.0 mi Calm Calm - N/A   Clear
11:54 PM -11.9 °F -25.7 °F -18.0 °F 74% 30.52 in 10.0 mi SSE 5.8 mph - N/A   Clear